Probability
0 0 0 0 0 0 0 0 0 0 0 0 0 0 0 0 0 0 0 0 0 0 0 0 0 0 0 0 1 2 1 0 0 0 0 0 0 0 0 0 0 0 0 0
0 0 0 0 0 0 0 0 0 0 0 0 0 0 0 0 0 0 0 0 0 0 0 0 0 0 0 0 1 2 1 0 0 0 0 0 0 0 0 0 0 0 0 0
0 0 0 0 0 0 0 0 0 0 0 0 0 0 0 0 0 0 0 0 0 0 0 0 0 0 0 0 1 2 2 1 0 0 0 0 0 0 0 0 0 0 0 0
0 0 0 0 0 0 0 0 0 0 0 0 0 0 0 0 0 0 0 0 0 0 0 0 0 0 0 0 0 1 2 1 0 0 0 0 0 0 0 0 0 0 0 0
0 0 0 0 0 0 0 0 0 0 0 0 0 0 0 0 0 0 0 0 0 0 0 0 0 0 0 0 0 1 1 1 0 0 0 0 0 0 0 0 0 0 0 0
0 0 0 0 0 0 0 0 0 0 0 0 0 0 0 0 0 0 0 0 0 0 0 0 0 0 0 0 0 0 0 0 0 0 0 0 0 0 0 0 0 0 0 0
0 0 0 0 0 0 0 0 0 0 0 0 0 0 0 0 0 0 0 0 0 0 0 0 0 0 0 0 0 0 0 0 0 0 0 0 0 0 0 0 0 0 0 0
0 0 0 0 0 0 0 0 0 0 0 0 0 0 0 0 0 0 0 0 0 0 0 0 0 0 0 0 0 0 0 0 0 0 0 0 0 0 0 0 0 0 0 0
0 0 0 0 0 0 0 0 0 0 0 0 0 0 0 0 0 0 0 0 0 0 0 0 0 0 0 0 0 0 0 0 0 0 0 0 0 0 0 0 0 0 0 0
0 0 0 0 0 0 0 0 0 0 0 0 0 0 0 0 0 0 0 0 0 0 0 0 0 0 0 0 0 0 0 0 0 0 0 0 0 0 0 0 0 0 0 0
0 0 0 0 0 0 0 0 0 0 0 0 0 0 0 0 0 0 0 0 0 0 0 0 0 0 0 0 0 0 0 0 0 0 0 0 0 0 0 0 0 0 0 0
0 0 0 0 0 0 0 0 0 0 0 0 0 0 0 0 0 0 0 0 0 0 0 0 0 0 0 0 0 0 0 0 0 0 0 0 0 0 0 0 0 0 0 0
0 0 0 0 0 0 0 0 0 0 0 0 0 0 0 0 0 0 0 0 0 0 0 0 0 0 0 0 0 0 0 0 0 0 0 0 0 0 0 0 0 0 0 0
0 0 0 0 0 0 0 0 0 0 0 0 0 0 0 0 0 0 0 0 0 0 0 0 0 0 0 0 0 0 0 0 0 0 0 0 0 0 0 0 0 0 0 0
0 0 0 0 0 0 0 0 0 0 0 0 0 0 0 0 0 0 0 0 0 0 0 0 0 0 0 0 0 0 0 0 0 0 0 0 0 0 0 0 0 0 0 0
0 0 0 0 0 0 0 0 0 0 0 0 0 0 0 0 0 0 0 0 0 0 0 0 0 0 0 0 0 0 0 0 0 0 0 0 0 0 0 0 0 0 0 0
0 0 0 0 0 0 0 0 0 0 0 0 0 0 0 0 0 0 0 0 0 0 0 0 0 0 0 0 0 0 0 0 0 0 0 0 0 0 0 0 0 0 0 0
0 0 0 0 0 0 0 0 0 0 0 0 0 0 0 0 0 0 0 0 0 0 0 0 0 0 0 0 0 0 0 0 0 0 0 0 0 0 0 0 0 0 0 0
0 0 0 0 0 0 0 0 0 0 0 0 0 0 0 0 0 0 0 0 0 0 0 0 0 0 0 0 0 0 0 0 0 0 0 0 0 0 0 0 0 0 0 0
0 0 0 0 0 0 0 0 0 0 0 0 0 0 0 0 0 0 0 0 0 0 0 0 0 0 0 0 0 0 0 0 0 0 0 0 0 0 0 0 0 0 0 0
0 0 0 0 0 0 0 0 0 0 0 0 0 0 0 0 0 0 0 0 0 0 0 0 0 0 0 0 0 0 0 0 0 0 0 0 0 0 0 0 0 0 0 0
0 0 0 0 0 0 0 0 0 0 0 0 0 0 0 0 0 0 0 0 0 0 0 0 0 0 0 0 0 0 0 0 0 0 0 0 0 0 0 0 0 0 0 0
0 0 0 0 0 0 0 0 0 0 0 0 0 0 0 0 0 0 0 0 0 0 0 0 0 0 0 0 0 0 0 0 0 0 0 0 0 0 0 0 0 0 0 0
0 0 0 0 0 0 0 0 0 0 0 0 0 0 0 0 0 0 0 0 0 0 0 0 0 0 0 0 0 0 0 0 0 0 0 0 0 0 0 0 0 0 0 0
0 0 0 0 0 0 0 0 0 0 0 0 0 0 0 0 0 0 0 0 0 0 0 0 0 0 0 0 0 0 0 0 0 0 0 0 0 0 0 0 0 0 0 0
0 0 0 0 0 0 0 0 0 0 0 0 0 0 0 0 0 0 0 0 0 0 0 0 0 0 0 0 0 0 0 0 0 0 0 0 0 0 0 0 0 0 0 0
Wind_Speed
5 7 4 2 0 2 3 3 2 1 1 2 0 4 5 2 1 3 4 4 4 5 4 2 2 1 1 1 1 1 2 2 2 2 2 2 1 1 0 0 1 1 1 1
6 5 3 2 3 5 5 4 1 1 2 1 2 5 5 2 3 4 5 5 5 4 3 3 1 0 1 1 1 2 2 2 3 2 2 2 2 2 2 1 0 0 1 1
5 1 2 4 5 4 4 2 2 1 2 2 3 6 3 2 1 2 3 4 3 5 5 4 2 2 1 2 2 2 2 2 2 3 2 1 1 0 0 0 1 1 1 1
4 3 3 5 3 2 1 0 2 2 2 2 2 3 6 2 3 3 4 4 5 5 4 3 2 2 3 3 2 2 2 2 2 3 3 4 3 2 2 1 1 1 0 0
2 3 4 3 2 1 1 1 2 2 2 2 2 1 8 2 4 5 4 5 6 5 4 3 4 4 3 2 2 2 1 1 2 3 3 3 2 2 1 1 1 1 1 1
2 1 1 0 1 1 2 2 3 3 3 2 1 2 7 3 5 4 3 3 4 4 3 3 3 1 1 1 1 1 1 2 2 3 3 3 3 2 1 1 1 1 1 1
4 3 3 2 2 3 3 4 4 5 4 4 1 2 8 5 4 3 3 4 4 3 2 2 2 2 2 2 2 2 2 2 2 2 3 4 4 3 3 3 2 1 1 1
2 2 2 2 1 1 1 3 4 3 3 4 1 5 7 4 3 3 4 4 4 3 3 3 3 3 3 3 3 3 3 3 2 3 3 2 3 2 2 2 2 2 2 2
4 2 2 2 1 2 2 2 2 5 2 2 5 6 9 3 3 3 3 4 4 4 3 3 3 2 2 3 3 3 4 3 3 3 2 2 2 2 2 2 2 2 2 2
4 2 2 2 2 3 1 4 3 4 2 3 6 4 5 5 4 3 3 4 4 4 3 3 3 3 3 3 2 2 3 4 3 3 3 2 3 3 3 2 2 2 2 2
2 4 2 1 2 2 2 2 3 4 3 4 3 7 6 6 4 3 5 4 4 4 4 4 3 3 2 2 1 1 2 2 2 2 2 2 2 2 2 2 2 2 2 2
2 4 1 3 1 1 2 3 5 4 3 3 2 9 4 5 4 4 5 5 4 4 4 4 4 3 2 2 2 2 2 2 3 2 2 2 2 2 2 2 2 2 2 2
3 5 3 4 2 2 1 2 3 3 4 4 4 10 3 1 3 4 5 5 5 4 4 4 3 3 3 3 3 2 3 3 3 2 2 2 2 2 2 3 2 2 2 2
4 3 5 7 5 4 3 3 4 5 5 6 10 11 9 7 6 6 5 5 5 4 4 4 4 4 4 3 3 3 3 2 2 1 2 2 3 3 3 2 2 2 2 2
4 3 3 3 1 1 4 5 7 9 9 9 9 10 15 11 8 7 6 5 5 6 5 5 5 5 4 4 3 3 3 2 2 2 2 4 3 2 1 2 1 1 1 2
3 3 1 3 1 2 5 8 9 11 9 10 9 14 15 10 6 7 7 6 6 7 7 6 5 5 5 4 4 3 3 2 2 3 3 3 2 2 2 2 2 1 2 2
3 5 3 3 3 4 9 11 14 9 10 10 14 16 8 7 8 7 6 6 7 8 7 6 6 5 5 5 4 4 4 2 2 3 3 2 2 2 3 2 2 2 3 2
6 5 3 1 3 8 9 3 8 9 9 12 12 11 9 9 6 5 6 7 8 8 7 6 5 5 4 4 3 3 2 2 2 3 3 3 3 3 3 2 3 3 3 3
4 7 5 3 3 11 10 5 7 8 9 12 16 15 12 4 4 8 8 8 9 8 6 6 5 4 3 3 3 2 2 2 2 4 4 4 3 3 3 3 4 3 2 3
2 3 5 4 4 10 8 3 4 4 8 9 12 13 9 3 2 7 4 4 5 5 4 4 3 2 3 3 2 2 3 3 4 5 5 4 3 4 4 4 4 3 3 3
4 3 5 6 7 13 8 4 6 5 9 4 8 10 8 9 10 5 1 2 3 3 3 3 3 3 3 2 2 3 3 5 5 4 3 3 4 4 4 3 2 2 3 3
12 10 9 7 7 15 6 9 12 11 3 2 4 6 8 9 7 5 4 4 4 4 3 3 3 4 3 2 3 4 6 5 3 2 3 4 3 3 2 3 3 2 3 3
12 13 11 15 14 5 10 11 9 3 4 5 5 5 6 6 6 6 5 6 5 5 5 3 4 4 3 3 3 6 6 2 2 2 3 3 3 3 2 3 3 3 3 3
7 4 6 8 12 8 8 8 7 6 7 6 4 4 5 6 7 7 6 6 6 5 5 4 4 5 5 4 4 5 4 2 2 3 4 3 3 3 2 2 3 3 3 4
10 10 7 9 8 5 9 13 14 11 8 8 7 6 7 7 8 8 7 7 6 6 5 4 5 6 7 4 4 4 3 2 3 4 3 3 3 3 3 3 4 4 4 5
10 13 13 13 10 10 9 8 10 10 11 11 9 8 7 8 10 9 8 7 6 6 4 4 5 6 7 5 5 4 3 3 4 3 3 3 3 3 3 3 3 6 7 8
Wind_Direction
21 57 42 334 307 126 120 116 111 316 355 50 279 284 290 289 255 265 267 268 271 269 276 293 278 254 65 49 109 173 161 166 152 153 172 180 197 201 188 80 44 40 32 31
48 42 336 347 80 89 98 99 81 15 21 46 355 300 285 256 236 237 245 252 260 273 291 290 270 188 167 192 175 161 176 177 168 163 177 180 183 197 201 215 327 340 8 10
91 330 336 77 71 77 58 123 155 150 352 36 358 320 298 290 265 279 261 253 264 251 253 260 250 226 207 218 215 200 186 172 174 168 140 132 130 69 115 275 300 330 352 7
63 352 51 66 46 58 53 139 145 123 59 344 36 307 293 302 316 297 276 269 267 263 251 252 254 247 226 226 218 205 188 165 155 149 152 160 172 190 213 210 228 287 281 300
41 17 44 52 2 59 126 70 94 100 102 12 18 209 287 326 301 289 275 263 262 258 253 256 250 244 244 227 210 207 170 162 159 147 159 174 185 196 194 186 214 245 273 287
67 27 58 43 346 109 134 70 60 52 64 339 254 184 280 255 240 276 290 280 276 275 272 273 280 278 271 262 229 200 166 198 171 166 167 174 189 197 192 217 226 252 278 285
17 16 13 16 55 40 63 80 33 10 9 261 192 207 254 258 243 242 274 292 302 299 285 287 292 280 261 244 227 207 190 212 192 182 191 195 197 194 210 220 223 234 256 271
93 316 342 10 85 134 114 122 143 184 237 289 323 239 256 264 267 260 271 285 308 304 289 273 267 266 265 251 231 208 208 223 205 197 211 207 201 197 219 227 227 226 235 246
150 241 343 352 341 113 118 128 143 121 74 321 280 282 297 288 292 281 279 293 294 291 284 275 280 276 266 257 242 222 215 222 218 210 207 208 206 204 218 221 219 235 240 248
141 149 314 322 36 24 82 140 103 111 128 284 296 275 256 277 278 292 291 287 291 299 298 293 286 277 270 262 260 243 226 223 218 208 206 216 213 216 221 216 226 234 239 239
119 125 330 15 190 198 105 102 107 109 145 165 266 272 228 224 236 256 273 277 277 282 287 286 285 281 275 281 275 254 245 238 237 225 214 220 226 221 215 225 240 242 246 235
137 114 199 250 251 258 188 180 156 156 207 191 212 267 262 224 241 254 272 283 285 280 282 282 282 288 291 282 274 254 247 240 241 232 211 217 226 215 217 238 247 243 248 250
137 114 70 348 331 341 262 210 182 135 127 165 191 259 296 269 262 255 258 276 285 288 290 291 292 288 282 276 269 257 250 246 247 220 205 223 231 224 230 241 249 245 246 260
112 127 169 198 223 185 215 212 177 152 172 204 223 248 278 273 269 272 267 267 274 273 272 276 278 276 275 272 265 259 261 254 240 209 205 231 242 239 242 248 248 249 248 256
113 168 223 258 283 199 223 214 191 199 204 207 230 234 256 257 254 260 261 265 271 274 272 267 266 270 272 272 268 260 259 252 226 209 220 239 247 247 246 251 252 259 262 260
117 146 130 296 305 284 268 241 219 225 228 237 255 265 259 261 260 261 260 257 259 265 267 264 263 265 265 263 262 261 257 251 216 217 234 247 247 244 245 249 250 249 256 262
144 134 135 266 322 348 274 226 204 207 211 201 226 243 255 259 253 250 250 245 250 258 264 261 256 253 255 254 249 247 249 247 220 231 242 242 235 239 245 246 242 244 250 255
145 135 138 142 52 248 249 187 192 209 230 217 235 249 247 244 259 259 247 243 252 254 255 257 254 254 255 253 251 253 250 229 228 238 245 242 232 238 244 235 239 248 247 247
153 143 133 142 227 274 287 230 180 194 256 222 229 245 253 263 316 282 250 225 231 238 241 245 244 245 252 252 243 226 234 231 235 244 246 241 231 234 236 237 243 245 244 249
82 117 133 151 194 245 251 203 163 124 278 236 211 230 237 155 239 264 250 214 227 238 242 250 259 252 250 256 221 202 226 232 244 249 249 241 226 225 231 237 243 249 243 248
151 157 179 188 225 258 247 165 138 175 246 230 194 211 197 192 217 237 241 229 236 247 252 249 248 248 251 241 192 218 231 242 251 256 251 238 229 229 232 237 241 245 247 255
173 175 190 171 213 250 191 151 189 216 233 205 196 202 202 218 238 253 263 263 263 269 271 259 254 260 262 223 200 230 245 254 259 246 242 242 241 237 230 231 244 241 241 251
199 191 185 194 216 233 173 197 217 217 224 229 213 215 207 227 244 251 257 257 259 257 261 256 247 261 266 236 211 234 254 260 250 241 244 248 247 240 234 227 233 236 233 242
227 201 194 234 250 238 223 236 245 233 233 246 236 226 208 230 247 253 257 259 259 258 255 254 248 255 264 255 236 238 252 237 227 239 246 243 239 246 241 236 232 233 235 241
200 177 201 240 253 269 250 231 236 240 242 250 250 234 228 235 249 251 256 257 254 257 258 247 242 250 257 255 249 247 236 205 222 238 242 241 237 236 242 242 240 241 241 239
187 183 191 222 209 205 231 221 213 221 233 235 239 247 239 227 243 249 253 255 254 255 255 252 250 251 255 251 250 247 222 203 209 232 236 233 233 234 236 249 268 258 257 264